Location: ČR
(50.0000°N, 15.0000°E)
Time: 12:30:40
(UTC+02:00)

A-11 Canister half - Pass Details

Date: 20 March 2026
Orbit: 1514 x 1685 km, 47.2° (Epoch: 16 April)

Event Time Altitude Azimuth Distance (km) Brightness Sun altitude
Rises 18:14:16 0° 286° (WNW) 4,916 13.6 -1.1°
Reaches altitude 10° 18:17:31 10° 282° (WNW) 3,938 13.1 -1.6°
Maximum altitude 18:27:06 49° 212° (SSW) 2,074 10.0 -3.1°
Drops below altitude 10° 18:36:39 10° 141° (SE) 3,924 10.7 -4.6°
Sets 18:39:54 0° 136° (SE) 4,897 11.2 -5.2°
